Location: Newark
(13.8117°N, 3.6025°W)
Time: 08:00:02
(UTC+00:00)

Vanguard 2 - Pass Details

Date: 27 August 2019
Orbit: 554 x 2937 km, 32.9° (Epoch: 21 September)

Event Time Altitude Azimuth Distance (km) Brightness Sun altitude
Rises 10:47:06 0° 279° (W) 2,720 10.1 67.9°
Reaches altitude 10° 10:49:48 10° 301° (WNW) 1,897 9.5 68.6°
Maximum altitude 10:52:41 18° 345° (NNW) 1,601 9.3 69.3°
Drops below altitude 10° 10:56:07 10° 28° (NNE) 2,303 10.2 70.1°
Sets 10:59:53 0° 47° (NE) 3,597 11.1 71.0°
